TIANWANG 1B (TW-1B)
1 40927U 15051C   19036.41117418  .00011273  00000-0  19211-3 0  9991
2 40927  97.1596  82.4971 0009520 145.6037 340.1873 15.51482171189339
TIANWANG 1A (TW-1A)
1 40928U 15051D   19036.52286816  .00003676  00000-0  94219-4 0  9993
2 40928  97.1618  70.7291 0010874 187.6057 307.9911 15.39935465188677
LAPAN A2
1 40931U 15052B   19034.12703952  .00000715  00000-0  10589-4 0  9996
2 40931   5.9971 303.2279 0013133  35.0098 325.1687 14.76596938181192
LQSAT
1 40958U 15057A   19036.49601990 -.00000006  00000-0  68221-5 0  9992
2 40958  97.9155 109.1871 0017285 312.2997  47.6749 14.73065559179196
CHUBUSAT 2
1 41338U 16012B   19035.88132055 +.00000328 +00000-0 +18818-4 0  9992
2 41338 031.0028 275.1145 0013971 218.3320 141.6323 15.00090120162805
CHUBUSAT 3
1 41339U 16012C   19036.06623715  .00000299  00000-0  16482-4 0  9994
2 41339  31.0104 272.2142 0013777 227.7814 132.1653 15.00269811162820
OUFTI-1
1 41458U 16025C   19036.46867375  .00001818  00000-0  95994-4 0  9999
2 41458  98.1127 116.5534 0169596  84.9383 277.1166 15.05392150152535
E-STAR-2
1 41459U 16025D   19036.45497126  .00001292  00000-0  69910-4 0  9997
2 41459  98.1117 116.2760 0170760  86.0009 276.0717 15.05061528152505
AAUSAT 4
1 41460U 16025E   19036.45605827  .00002079  00000-0  10817-3 0  9993
2 41460  98.1059 117.2083 0160721  80.0788 281.8531 15.06774928152600
NUSAT 1
1 41557U 16033B   19036.49661889  .00001436  00000-0  57079-4 0  9991
2 41557  97.4243 124.7847 0015222  53.0096 307.2534 15.26851623149761
BEESAT 4
1 41619U 16040W   19036.13396494  .00001441  00000-0  64612-4 0  9993
2 41619  97.3861 100.7495 0012808 128.4557 231.7831 15.22746566133538
PRATHAM
1 41783U 16059A   19035.82020490 +.00000045 +00000-0 +18034-4 0  9996
2 41783 098.0873 098.2299 0034891 085.3432 275.1754 14.62970839125973
ALSAT 1N
1 41789U 16059G   19036.33273430  .00000067  00000-0  21761-4 0  9998
2 41789  98.0895 100.4404 0029716  74.2071 286.2408 14.64213912126135
NAYIF 1
1 42017U 17008BX  19036.13135289  .00001545  00000-0  64608-4 0  9994
2 42017  97.4203 104.5215 0004679 282.9044  77.1671 15.25114746109560
LILACSAT-1
1 42725U 98067ME  19036.39136991  .00133842  17744-4  42271-3 0  9997
2 42725  51.6327 234.4558 0001735 168.5383 255.6847 15.91074510 97339
MAX VALIER SAT
1 42778U 17036P   19036.12098880  .00000921  00000-0  43625-4 0  9996
2 42778  97.3737  96.6137 0011711 340.4713  19.6073 15.21749446 89928
